Flag for Canada Weather past 2 weeks in Kamloops, British Columbia, Canada

Now
59 °F

Light rain. Mostly cloudy.


Feels Like: 58 °F
Forecast: 55 / 67 °F
Wind: 7 mph from East

Location: Kamloops

Current Time: Jun 2, 2015 at 6:47:29 PM

Latest Report: Jun 2, 2015 at 6:00 PM


Visibility: 10 mi

Pressure: 29.84 "Hg

Humidity: 88%

Dew point: 55 °F

Location of KamloopsLocation

Historic Weather in Kamloops — Graph

°F

Kamloops temperature yesterday

Maximum temperature yesterday: 82 °F (at 4:00 PM)
Minimum temperature yesterday: 54 °F (at 5:00 AM)
Average temperature yesterday: 66 °F

Past Weeks' High & Low Weather Summary

 TemperatureHumidityPressure
High88 °F (May 21, 3:00 PM)94% (May 25, 7:00 AM)30.15 "Hg (May 25, 7:00 AM)
Low50 °F (May 19, 5:00 AM)13% (May 21, 3:00 PM)29.66 "Hg (May 30, 6:00 PM)
Average67 °F52%29.91 "Hg
* Reported May 18 5:00 PM — Jun 2 5:00 PM, Kamloops, Weather by CustomWeather, © 2015

Note: Actual official high and low records may vary slightly from our data, if they occured in-between our weather recording intervals... More about our weather records

Advertising

Kamloops weather history for previous 24 hours

 ConditionsComfort  
Time TempWeatherWind HumidityBarometerVisibility
5:00 PM
Tue, Jun 2
59 °FCloudy.2 mph94%29.84 "Hg10 mi
4:00 PM61 °FLight rain. Mostly cloudy.6 mph83%29.83 "Hg10 mi
3:00 PM63 °FLight rain. Broken clouds.6 mph83%29.82 "Hg20 mi
2:00 PM63 °FLight rain. Cloudy.6 mph83%29.82 "Hg20 mi
1:00 PM63 °FLight rain. Cloudy.8 mph77%29.81 "Hg20 mi
12:00 PM63 °FLight rain. Cloudy.6 mph83%29.80 "Hg20 mi
11:00 AM61 °FOvercast.5 mph88%29.80 "Hg20 mi
10:00 AM61 °FMostly cloudy.6 mph88%29.80 "Hg15 mi
9:00 AM61 °FLight rain. Mostly cloudy.2 mph88%29.81 "Hg15 mi
8:00 AM61 °FLight rain. Cloudy.No wind88%29.80 "Hg25 mi
7:00 AM61 °FLight rain. Mostly cloudy.No wind88%29.80 "Hg30 mi
6:00 AM59 °FSprinkles. Overcast.2 mph94%29.79 "Hg30 mi
5:00 AM61 °FSprinkles. Overcast.3 mph83%29.78 "Hg40 mi
4:00 AM63 °FSprinkles. Overcast.3 mph77%29.77 "Hg0 mi
3:00 AM63 °FPassing clouds.5 mph68%29.77 "Hg40 mi
2:00 AM63 °FPassing clouds.2 mph68%29.77 "Hg40 mi
1:00 AM64 °FPassing clouds.7 mph64%29.78 "Hg40 mi
12:00 AM64 °FPassing clouds.5 mph68%29.77 "Hg40 mi
11:00 PM
Mon, Jun 1
64 °FPassing clouds.10 mph64%29.78 "Hg40 mi
10:00 PM68 °FPartly sunny.8 mph56%29.78 "Hg40 mi
9:00 PM68 °FPartly sunny.5 mph56%29.77 "Hg40 mi
8:00 PM70 °FPartly sunny.12 mph50%29.76 "Hg40 mi
7:00 PM72 °FBroken clouds.12 mph44%29.76 "Hg40 mi
6:00 PM72 °FPartly sunny.7 mph47%29.78 "Hg40 mi
Weather by CustomWeather, © 2015

See weather overviewHow to use our weather pages